[[{"header":{"parameterUnit":"m.s-1","parameterCategory":1,"la1":30.2991,"la2":30.254,"lo1":-89.0895,"lo2":-89.0444,"dy":0.0017,"dx":0.0017,"nx":28,"ny":28,"refTime":"2025-04-15T09:00:00:Z","depth":0,"parameterNumber":2,"parameterNumberName":"U-component_of_WINDS"},"data":[0,0,0,0,0,0,0,0,0,0,0,0,0,0,0,0,0,0,0,0,0,0,0,0,0,0,0,0,0,0,0,0,0,0,0,0,0,0,0,0,0,0,0,0,0,0,0,0,0,0,0,0,0,0,0,0,0,0,3.2458,3.2459,0,3.2576,3.2577,3.2579,3.2502,3.2498,3.2495,3.2491,3.2616,3.2623,3.2629,0,0,0,0,0,0,0,0,0,0,0,0,0,3.2169,3.2174,3.2458,3.2459,3.2461,3.2576,3.2577,3.2579,3.2502,3.2498,3.2494,3.249,3.2614,3.2622,3.263,0,0,0,0,0,0,0,0,0,0,0,0,0,3.2292,3.2176,3.2458,3.2436,3.2436,3.2576,3.2578,3.258,3.2503,3.2498,3.2493,3.2488,3.2612,3.2621,3.2631,3.28,0,0,3.2662,3.2666,0,0,0,0,0,0,0,0,3.2285,3.2302,3.2438,3.2438,3.2437,3.2519,3.2521,3.2654,3.2505,3.2478,3.2491,3.2485,3.2589,3.26,3.2634,3.2806,3.2811,3.2663,3.2669,3.2673,3.2676,0,0,0,0,0,0,0,3.2276,3.2297,3.2505,3.244,3.244,3.2422,3.2433,3.2546,3.2562,3.248,3.2474,3.2489,3.2587,3.2625,3.2636,3.2813,3.2662,3.2671,3.2677,3.2681,3.3127,3.3132,0,0,0,0,0,0,3.2269,3.229,3.2501,3.2508,3.2346,3.2431,3.2444,3.2498,3.256,3.2565,3.2494,3.2485,3.261,3.2625,3.2641,3.284,3.2673,3.2682,3.2688,3.3121,3.3128,3.3134,0,0,0,0,0,0,3.2263,3.2289,3.2496,3.2398,3.2423,3.2442,3.2503,3.2503,3.254,3.2571,3.2574,3.2529,3.2607,3.2627,3.276,3.2843,3.2687,3.2696,3.3114,3.3123,3.3131,3.3242,0,0,0,0,0,0,3.2255,3.2287,3.2351,3.24,3.2428,3.2613,3.2508,3.2509,3.2557,3.2547,3.2604,3.2609,3.2604,3.2746,3.277,3.2854,3.2704,3.3107,3.3118,3.3128,3.3231,3.3253,3.3273,0,0,0,0,0,3.2245,3.2379,3.2354,3.238,3.2508,3.2618,3.2635,3.2625,3.2564,3.2629,3.2648,3.2607,3.2831,3.276,3.2787,3.2875,3.3101,3.3115,3.3128,3.3221,3.3249,3.3272,0,0,0,0,0,0,3.2341,3.2385,3.2358,3.2511,3.2561,3.2605,3.2686,3.2655,3.2724,3.2712,3.2699,3.2712,3.2851,3.2877,3.2797,3.3041,3.2956,3.2976,3.3019,3.3045,3.3065,3.3056,3.2712,0,0,0,0,0,3.2379,3.2464,3.2498,3.263,3.2656,3.2667,3.2715,3.2703,3.2755,3.2776,3.2805,3.2858,3.294,3.2994,3.3071,3.3235,3.3245,3.3309,3.333,3.3347,3.3363,3.3449,3.3477,3.3178,3.3177,3.3177,0,0,3.2461,3.2495,3.255,3.265,3.2687,3.2775,3.2686,3.2783,3.2848,3.2791,3.2917,3.2941,3.2999,3.3148,3.3215,3.3173,3.3448,3.3363,3.3377,3.3384,3.3465,3.3493,3.3519,3.3186,3.3185,3.3183,0,0,3.2653,3.2688,3.28,3.2839,3.2896,3.2902,3.2929,3.2977,3.299,3.3117,3.3075,3.3153,3.3295,3.3337,3.3377,3.3584,3.3548,3.361,3.3719,3.3803,3.3826,3.3847,3.3919,3.3945,3.3627,3.3627,3.3627,0,3.2747,3.2877,3.2863,3.2963,3.3008,3.2958,3.3072,3.3111,3.3191,3.3223,3.3176,3.3351,3.3387,3.3543,3.3593,3.3628,3.3658,3.3603,3.3824,3.3844,3.3864,3.3932,3.3959,3.3634,3.3633,3.3632,3.3632,0,3.2988,3.3079,3.3163,3.3239,3.3294,3.3401,3.3403,3.3461,3.3444,3.3455,3.3584,3.3625,3.3709,3.3745,3.3732,3.39,3.3872,3.3825,3.3739,3.3899,3.3963,3.3989,3.3644,3.3641,3.3639,3.3638,0,0,3.3244,3.3309,3.334,3.3373,3.3432,3.3502,3.3607,3.3686,3.3735,3.3792,3.3878,3.3999,3.3954,3.4,3.399,3.4065,3.4223,3.4008,3.4009,3.4044,3.4409,3.4442,3.4473,3.42,3.4205,3.4209,3.4403,0,3.3438,3.3617,3.3607,3.3776,3.3859,3.3813,3.3903,3.3949,3.3963,3.4035,3.405,3.4135,3.4071,3.4098,3.417,3.4188,3.4296,3.4175,3.428,3.4284,3.4264,3.4506,3.4543,3.4724,3.4428,3.4432,3.4435,0,3.3687,3.375,3.3927,3.3971,3.4005,3.4087,3.4158,3.4228,3.428,3.4284,3.4334,3.4312,3.4417,3.433,3.4475,3.4392,3.4435,3.4451,3.4458,3.4466,3.4368,3.4519,3.4782,3.4808,3.4475,3.4472,3.4469,0,3.3853,3.3982,3.4104,3.4134,3.4189,3.4247,3.4273,3.4319,3.4367,3.443,3.4461,3.4536,3.4577,3.4636,3.4635,3.4572,3.4781,3.4694,3.4787,3.4787,3.4831,3.4828,3.5102,3.4863,3.4862,3.4862,3.4861,0,3.4069,3.4178,3.4178,3.4253,3.4374,3.4362,3.4482,3.4502,3.4543,3.4621,3.4587,3.4661,3.4655,3.473,3.4731,3.4849,3.4869,3.4875,3.4873,3.4876,3.4875,3.4903,3.4889,3.4869,3.4867,3.4866,3.4865,0,3.4274,3.4278,3.4407,3.4448,3.4461,3.4548,3.4584,3.4655,3.4664,3.4763,3.4786,3.4802,3.4888,3.4893,3.4994,3.4993,3.5136,3.5122,3.5118,3.5115,3.5206,3.5197,3.5506,3.5545,3.5282,3.5285,3.5287,0,3.441,3.4493,3.4542,3.4591,3.4619,3.4699,3.4747,3.4739,3.479,3.4854,3.4917,3.5,3.5065,3.5205,3.5226,3.5303,3.5288,3.5392,3.53,3.53,3.5287,3.5281,3.5289,3.5409,3.5412,3.5414,3.5416,0,3.4651,3.4649,3.4719,3.479,3.4847,3.4903,3.4955,3.4997,3.4995,3.5055,3.5141,3.5192,3.5293,3.5375,3.5449,3.5476,3.5446,3.5445,3.547,3.5473,3.5467,3.5469,3.5165,3.5438,3.5435,3.5434,3.5433,3.5432,3.4824,3.4895,3.4939,3.5018,3.5056,3.5105,3.5172,3.519,3.5261,3.5341,3.5333,3.5429,3.5477,3.5572,3.5606,3.5681,3.5645,3.5682,3.5691,3.57,3.5708,3.5456,3.5695,3.5694,3.5693,3.5693,3.5693,0,3.5061,3.5088,3.516,3.5232,3.5294,3.5259,3.5314,3.5368,3.5452,3.5499,3.5563,3.5662,3.5742,3.5769,3.5845,3.59,3.5888,3.5921,3.5915,3.5922,3.5737,3.5706,3.5929,3.5929,3.5929,3.5929,3.5929,3.5929,3.5192,3.5308,3.5311,3.5445,3.5471,3.5563,3.5597,3.5642,3.5679,3.579,3.5855,3.5871,3.591,3.5989,3.606,3.6066,3.6095,3.6133,3.6133,3.5959,3.5935,3.5913,3.5884,3.614,3.614,3.6311,3.6313,3.6314]},{"header":{"parameterUnit":"m.s-1","parameterCategory":1,"la1":30.2991,"la2":30.254,"lo1":-89.0895,"lo2":-89.0444,"dy":0.0017,"dx":0.0017,"nx":28,"ny":28,"refTime":"2025-04-15T09:00:00:Z","depth":0,"parameterNumber":3,"parameterNumberName":"V-component_of_WINDS"},"data":[0,0,0,0,0,0,0,0,0,0,0,0,0,0,0,0,0,0,0,0,0,0,0,0,0,0,0,0,0,0,0,0,0,0,0,0,0,0,0,0,0,0,0,0,0,0,0,0,0,0,0,0,0,0,0,0,0,0,2.2917,2.292,0,2.3184,2.3188,2.3191,2.3218,2.3215,2.3213,2.321,2.3485,2.3495,2.3505,0,0,0,0,0,0,0,0,0,0,0,0,0,2.2429,2.2438,2.2917,2.292,2.2924,2.3184,2.3188,2.3191,2.3219,2.3215,2.3212,2.3209,2.3482,2.3494,2.3506,0,0,0,0,0,0,0,0,0,0,0,0,0,2.2663,2.2441,2.2916,2.2968,2.2976,2.3183,2.3188,2.3192,2.3219,2.3215,2.3211,2.3207,2.3478,2.3493,2.3507,2.3682,0,0,2.3553,2.3559,0,0,0,0,0,0,0,0,2.265,2.2681,2.2957,2.2965,2.2974,2.3164,2.3117,2.3356,2.322,2.3127,2.321,2.3205,2.3382,2.3404,2.3464,2.3694,2.3706,2.3554,2.3563,2.3569,2.3574,0,0,0,0,0,0,0,2.2634,2.267,2.3023,2.2961,2.2971,2.2978,2.3007,2.3162,2.3274,2.3135,2.3137,2.3169,2.3386,2.3449,2.347,2.371,2.3554,2.3567,2.3576,2.3582,2.4096,2.41,0,0,0,0,0,0,2.2608,2.2656,2.3014,2.3031,2.2798,2.2991,2.3023,2.3107,2.3273,2.3294,2.3172,2.3169,2.3426,2.3453,2.348,2.3695,2.3569,2.3583,2.3592,2.4091,2.4097,2.4102,0,0,0,0,0,0,2.2597,2.2639,2.3003,2.2844,2.2891,2.3003,2.3098,2.3114,2.3178,2.3301,2.3321,2.3217,2.3424,2.3459,2.3631,2.3705,2.359,2.3603,2.4086,2.4093,2.41,2.4125,0,0,0,0,0,0,2.2583,2.2636,2.2703,2.2846,2.29,2.315,2.3102,2.3123,2.3204,2.3202,2.3348,2.3368,2.3423,2.3609,2.3646,2.3723,2.3615,2.408,2.4089,2.4097,2.4118,2.4132,2.4144,0,0,0,0,0,2.2566,2.27,2.2707,2.275,2.2987,2.3154,2.3185,2.3246,2.3209,2.3278,2.3356,2.3363,2.369,2.3626,2.3668,2.3751,2.4075,2.4086,2.4097,2.4113,2.413,2.4144,0,0,0,0,0,0,2.2565,2.272,2.2729,2.2914,2.302,2.3159,2.3248,2.3262,2.3382,2.3376,2.3445,2.3478,2.3647,2.3716,2.3642,2.3927,2.3879,2.3898,2.3877,2.3894,2.3907,2.3887,2.3627,0,0,0,0,0,2.2586,2.2709,2.2838,2.2989,2.3042,2.3135,2.3211,2.3247,2.3361,2.3407,2.3498,2.3608,2.3735,2.3818,2.3942,2.4127,2.4159,2.4205,2.4218,2.4228,2.4245,2.4347,2.4368,2.4137,2.4137,2.4137,0,0,2.2632,2.2732,2.2806,2.2991,2.3078,2.3204,2.3173,2.3308,2.3402,2.3428,2.3595,2.3665,2.3793,2.3972,2.4055,2.4034,2.4315,2.4241,2.4248,2.426,2.436,2.4382,2.4401,2.4144,2.4143,2.4142,0,0,2.278,2.2867,2.3002,2.3089,2.3221,2.3282,2.3314,2.345,2.3497,2.3666,2.3687,2.3799,2.4018,2.4107,2.4182,2.4359,2.437,2.4398,2.4467,2.4565,2.4584,2.46,2.4664,2.4686,2.4413,2.4414,2.4414,0,2.282,2.3011,2.307,2.3204,2.3285,2.3311,2.3448,2.353,2.3696,2.3751,2.3724,2.3998,2.4085,2.4285,2.4328,2.4387,2.4426,2.4383,2.4576,2.4593,2.4609,2.4671,2.4695,2.4416,2.4416,2.4415,2.4415,0,2.3054,2.3185,2.3278,2.3436,2.3527,2.3662,2.3741,2.3826,2.3854,2.3917,2.4088,2.4193,2.4339,2.4388,2.4418,2.4592,2.4575,2.4561,2.4515,2.4633,2.4692,2.4716,2.442,2.4419,2.4418,2.4417,0,0,2.3212,2.3398,2.3432,2.3503,2.3649,2.3752,2.3887,2.4028,2.4099,2.4212,2.4327,2.4509,2.4497,2.4581,2.462,2.4706,2.484,2.4682,2.4686,2.4708,2.5039,2.5049,2.5076,2.4847,2.4852,2.4855,2.5028,0,2.3377,2.3618,2.3674,2.3881,2.4003,2.4028,2.4146,2.4248,2.4309,2.4422,2.449,2.4618,2.4592,2.4643,2.4729,2.4805,2.4908,2.4793,2.4955,2.496,2.4924,2.5107,2.5119,2.5277,2.5052,2.5056,2.5059,0,2.3603,2.3719,2.3938,2.4066,2.4119,2.4224,2.4357,2.4463,2.4579,2.4617,2.4709,2.4739,2.488,2.4823,2.5018,2.4939,2.5008,2.5055,2.5063,2.5082,2.5018,2.5132,2.5329,2.5353,2.5095,2.5093,2.509,0,2.3697,2.3908,2.4066,2.4126,2.4279,2.4352,2.4419,2.453,2.4611,2.4727,2.4779,2.491,2.4982,2.5082,2.5146,2.5099,2.5336,2.5285,2.5372,2.5371,2.5423,2.5419,2.5635,2.5464,2.5464,2.5464,2.5463,0,2.3876,2.401,2.411,2.4208,2.4357,2.4419,2.4565,2.4632,2.473,2.4841,2.487,2.4973,2.505,2.5164,2.5214,2.5368,2.54,2.5435,2.5447,2.5434,2.5429,2.5482,2.5473,2.547,2.5469,2.5467,2.5466,0,2.4008,2.4081,2.4255,2.4384,2.442,2.4524,2.4635,2.4731,2.4791,2.4931,2.4967,2.5063,2.5198,2.527,2.544,2.5473,2.5646,2.5651,2.5607,2.5613,2.5696,2.5688,2.5955,2.5993,2.5795,2.5797,2.5798,0,2.4119,2.4222,2.4362,2.4437,2.4506,2.4628,2.4709,2.4773,2.4857,2.4994,2.5073,2.5209,2.5322,2.5536,2.5621,2.575,2.576,2.5844,2.578,2.5762,2.5763,2.5756,2.5767,2.5857,2.5858,2.586,2.5861,0,2.4308,2.4338,2.4455,2.4584,2.468,2.4785,2.4889,2.4949,2.5029,2.5122,2.526,2.5347,2.5519,2.5654,2.5789,2.5858,2.5874,2.588,2.5908,2.5896,2.5866,2.5884,2.564,2.5875,2.5873,2.5872,2.5872,2.5871,2.4434,2.4526,2.4638,2.4767,2.4851,2.4946,2.5042,2.5114,2.523,2.5374,2.5404,2.555,2.566,2.5843,2.5916,2.603,2.6014,2.6053,2.6063,2.6072,2.6076,2.5846,2.6055,2.6055,2.6054,2.6054,2.6054,0,2.4626,2.4698,2.4815,2.4959,2.5059,2.5063,2.5177,2.5261,2.5389,2.549,2.56,2.5757,2.5888,2.5981,2.6114,2.6187,2.6198,2.622,2.6217,2.6232,2.6083,2.6047,2.621,2.621,2.621,2.621,2.6209,2.6209,2.4737,2.4893,2.4936,2.5133,2.5205,2.5347,2.5412,2.55,2.5581,2.5756,2.5864,2.5923,2.6022,2.6161,2.628,2.6305,2.6353,2.6375,2.64,2.6259,2.6243,2.6227,2.6193,2.6384,2.6384,2.6539,2.6541,2.6542]}]]